Location: Izdebnik
(49.8699°N, 19.7619°E)
Time: 08:04:54
(UTC+01:00)

ISS - Pass Details

Date: 23 January 2019
Orbit: 403 x 411 km, 51.6° (Epoch: 22 February)

Event Time Altitude Azimuth Distance (km) Brightness Sun altitude
Rises 18:33:18 0° 220° (SW) 2,326 0.7 -21.1°
Reaches altitude 10° 18:35:31 10° 209° (SSW) 1,470 -0.6 -21.5°
Enters shadow 18:37:05 21° 188° (S) 970 -1.8 -21.8°
